User: anonymous   Login
Location: Allison's Woods
(35.8809°N, 80.8140°W)
Time: 01:47:23
(UTC-04:00)
Language:

Iridium 39 - Orbit

View from above orbital plane
View from above orbital plane
View from above satellite
View from above satellite

Ground track
Ground track

The orbit data is extracted from the following two-line orbital elements,

1 25042U 97069D   15208.36393985  .00000208  00000-0  67099-4 0  9991
2 25042 086.4009 310.9364 0002320 091.8893 268.2568 14.34215484927295
Epoch (UTC): 27 July 2015 08:44:04
Eccentricity: 0.0002320
inclination: 86.4009°
perigee height: 776 km
apogee height: 779 km
right ascension of ascending node: 310.9364°
argument of perigee: 91.8893°
revolutions per day: 14.34215484
mean anomaly at epoch: 268.2568°
orbit number at epoch: 92729

The dashed part of the orbit path shows where the satellite is in the earth's shadow,  

DLR